STARLINK-2002 (47597 NORAD) Tracking and Keplerian Element Data

This shows tracking and keplerian element data for the satellite.

Feedback or suggestion? Click here.




ElementValue
Catalog47597
NameSTARLINK-2002
Epoch Orbit175
Epoch Day101.91668981
Epoch Year2021
RAAN169.6794
Inclination53.0543
Eccentricity8.75E-05
Argument of Perigee68.3141
Mean Anonmoly194.6854
Mean Motion15.06404071
Decay Rate-0.00018264
L11 47597U 21009BB 21101.91668981 -.00018264 00000-0 -12103-2 0 9999
L22 47597 53.0543 169.6794 0000875 68.3141 194.6854 15.06404071 1757

Live tracking and technical data element details for STARLINK-2002 (NORAD 47597). STARLINK-2002 can be tracked NOW for your location showing map with azimuth and elevation plus other details from your city location.

Track the satellite on the map from your city or location and see movement details for azimuth, elevation, latitude, longitude, range, height, and movement on the map or in text.







IsCatalogInMostPopularTable: catalog: 47597, numindb: 16
Update: records affected: 1



GetName: 47597 STARLINK-2002

Hit Count: updated at: Tue, 13 Apr 2021 03:49:25 GMT